Miscellaneous Local Product
Issued by NWS Hastings, NE

Home | Current Version | Previous Version | Text Only | Print | Product List | Glossary Off
Versions: 1 2 3 4 5 6 7 8 9 10 11 12 13 14 15 16 17 18 19 20 21 22 23 24 25 26 27 28 29 30 31 32 33 34 35 36 37 38 39 40 41 42 43 44 45 46 47 48 49 50

000
AXUS43 KGID 182102
MISGRI

GID CWA HOURLY WEATHER ROUNDUP
NATIONAL WEATHER SERVICE HASTINGS NE
300 PM CST WED JAN 18 2017

NOTE: "FAIR" INDICATES FEW OR NO CLOUDS BELOW 12,000 FEET WITH NO
SIGNIFICANT WEATHER AND/OR OBSTRUCTIONS TO VISIBILITY.

...SOUTH CENTRAL NEBRASKA...

CITY           SKY/WX    TMP DP  RH WIND       PRES   REMARKS
GRAND ISLAND   CLOUDY    48  41  76 S21G26    29.85F
HASTINGS       SUNNY     47  38  71 SW13G22   29.88F
KEARNEY        CLOUDY    46  37  71 S21       29.85F
ORD            SUNNY     46  37  71 S13       29.81F
YORK           SUNNY     46  41  81 S16       29.87F
AURORA         CLOUDY    48  41  77 S15       29.86F
LEXINGTON      CLOUDY    44  37  75 S16       29.83F
HOLDREGE       SUNNY     46  38  73 S15G22    29.86F
HEBRON         SUNNY     49  40  71 S13       29.93S

...NEBRASKA PANHANDLE...

CITY           SKY/WX    TMP DP  RH WIND       PRES   REMARKS
CHADRON        CLOUDY    38  26  62 SW7       29.74F WCI  33
ALLIANCE       CLOUDY    52  22  30 W10       29.73F
SCOTTSBLUFF    CLOUDY    50  25  37 SE7       29.76F
SIDNEY         CLOUDY    47  24  40 SW10      29.77F

...WESTERN AND NORTH CENTRAL NEBRASKA...

CITY           SKY/WX    TMP DP  RH WIND       PRES   REMARKS
VALENTINE      SUNNY     59  18  20 W6        29.72F
AINSWORTH      SUNNY     55  25  31 S9        29.74F
ONEILL         SUNNY     54  35  48 S13       29.78F
BROKEN BOW     SUNNY     47  36  65 S13       29.80F
IMPERIAL       CLOUDY    46  29  51 SW6       29.80F
NORTH PLATTE   SUNNY     50  32  50 S10       29.80F
MCCOOK         CLOUDY    48  37  65 S12       29.83F

...EASTERN NEBRASKA...

CITY           SKY/WX    TMP DP  RH WIND       PRES   REMARKS
NORFOLK        SUNNY     48  40  73 S9        29.83F
SO SIOUX CITY  SUNNY     50  39  66 SW16      29.87F
TEKAMAH        SUNNY     49  40  71 S14       29.89F
COLUMBUS       SUNNY     46  39  76 S14       29.87S
ALBION         SUNNY     46  39  74 S5        29.82F
OMAHA EPPLEY   MOSUNNY   49  39  68 S14       29.91F
OFFUTT AFB     SUNNY     49  44  81 S10       29.92F
MILLARD        SUNNY     54  41  62 S9        29.91F
LINCOLN        SUNNY     51  40  65 S16       29.92F
NEBRASKA CITY  SUNNY     50  35  56 S15       29.95F
BEATRICE       SUNNY     50  39  65 S10       29.95S
FALLS CITY     SUNNY     52  38  58 S10       29.98F

...NORTHERN KANSAS...

CITY           SKY/WX    TMP DP  RH WIND       PRES   REMARKS
GOODLAND       CLOUDY    45  34  65 S10       29.82F
HILL CITY        N/A     53  41  63 MISG      29.88F
NORTON         CLOUDY    45  34  65 S10       29.86F
PHILLIPSBURG   SUNNY     52  39  62 S6        29.89F
SMITH CENTER   SUNNY     54  43  66 SW14      29.90S
HAYS           PTSUNNY   57  42  57 S21G26    29.87F
RUSSELL        NOT AVBL
CONCORDIA      SUNNY     53  38  56 S16       29.92F
SALINA         SUNNY     55  39  54 S18G28    29.94F
TOPEKA         SUNNY     55  34  45 S9        30.00F



USA.gov is the U.S. government's official web portal to all federal, state and local government web resources and services.